"Pseudo-MPEC" for C0QQM82

Created 2019 Jun 17 11:07:18 UT using Find_Orb

Click here for an explanation of pseudo-MPECs

 
 Astrometry: 
     C0QQM82  C2019 05 26V;xhJn=BCqT(PHXNOvYjLZyHu:-/icJA,kwgwnvYxD7'Nh`D2f%1F51
     C0QQM82  C2019 05 264%A/H_3ikm4EjVB^R!7P8$Z$#lD(WX(\Tk*mXM8Kb]oY-JZDLbY-F51
     C0QQM82  C2019 05 26@\ydWwm+kRx#%6(Asw_,^cf)dlAstrometryEwyf3S*Qd'Q1fvcdF51
     C0QQM82  C2019 06 05.24903 14 08 38.17 +01 42 39.6    ~656q 19.8 GVNEOCPG96
     C0QQM82  C2019 06 05.25474 14 08 36.28 +01 45 37.8    ~656q 20.3 GVNEOCPG96
     C0QQM82  C2019 06 05.26044 14 08 34.42 +01 48 37.0    ~656q       VNEOCPG96
     C0QQM82  C2019 06 05.26613 14 08 32.58 +01 51 33.8    ~656q 20.1 GVNEOCPG96
     C0QQM82  C2019 06 05.33832 14 08 10.09 +02 29 33.6    ~6597 19.1 GVNEOCPI52
     C0QQM82  C2019 06 05.33943 14 08 09.77 +02 30 09.7    ~6597 19.4 GVNEOCPI52
     C0QQM82  C2019 06 05.34054 14 08 09.46 +02 30 45.1    ~6597 18.9 GVNEOCPI52
     C0QQM82  C2019 06 05.34165 14 08 09.10 +02 31 20.3    ~6597 19.4 GVNEOCPI52
     C0QQM82 KC2019 06 05SCT[d'2J3p3ySQFy(yeoRoFpQQ\='E\Zh6oS'WQRD++PQ*2PI(]s104
     C0QQM82 KC2019 06 05(-J4iA;i#vWnkd2Mu=%@HdJyI\*rdAkmNo'rkvaHLr7(E2F$,nhV104
     C0QQM82 pC2019 06 05H7m,dWM/$UY_'J\hr.;i,q%r=)%fL54=(@':redacted;G7rpX*tL01
     C0QQM82 KC2019 06 05nLFVAi]MaXF%DLn2iQ,Kk-c02un`it`FpP]wkywIyHKK4oA@GN\d104
     C0QQM82  C2019 06 058H``b)5H)+xf(i@ms\;yaOncJ4dSJOkri,ZrA\V[v.Jhqj%2if]P246
     C0QQM82  C2019 06 05@KnsOw?!fK59FqoLRk4Wb#NR(;uclickn1XxQ]GKfDDgeI$osMur246
     C0QQM82 KC2019 06 05/]ZfefHZaqksIC0pHvolcZ;?8dm?_s7H0Liu87VTb!'2D8\lh+8,J04
     C0QQM82 KC2019 06 05eSKW=vVk4%!:nhereQ,_a`HbB4aZJ-HVF.uSZ-KR)'Dq`yeTPrnkJ04
     C0QQM82 KC2019 06 052TT*;4T7dHE:YG'f*.0VocA#:9q+Lg9q.o1`DY_^5s__j%IFN2gQJ04
     C0QQM82 pC2019 06 05[If-6Ygbh6hyP22jKc0rTQK%7BWr#Z^dJ=+f_BT^LAKl'YVy[1+`L01
     C0QQM82  C2019 06 06.15117 14 04 51.30 +10 43 31.9    ~6647 19.9 GVNEOCPI52
     C0QQM82  C2019 06 06.15306 14 04 50.49 +10 44 49.7    ~6647 19.9 GVNEOCPI52
     C0QQM82  C2019 06 06.15400 14 04 50.10 +10 45 28.7    ~6647 19.7 GVNEOCPI52
     C0QQM82 KC2019 06 06e0x-Apd!.NK4le0!I\vNSBU2x/nc:TO$,6F!!d)[jqNU')Xd%-qGK87
     C0QQM82 KC2019 06 06)y%Qcfors`lxl(explanationxI]ygA[W8c2tlk^KR/rn8KNDhG^K87
     C0QQM82 KC2019 06 06ZyP=wSwAu2Rhuebg0F8b/d0Gi8EX`)894U7A0h+osu4[D[.,jLplK87
     C0QQM82 KC2019 06 07;/7MIufb/uSP+AGkApPfN5N4Z*Lpm=Clc%!9X,xTSiOI.FSbf'Q;Z84
     C0QQM82 KC2019 06 07;1oE7?9/c/!hW?G=UJa*sI*eq-=f([Gt!:)$^xlorm2jH\QS/U]5Z84
     C0QQM82 KC2019 06 07@.v]Nxf0`enC]r'5?Qa2cQ[]hc8%SX4Opb(6L(vkPs(ITrh+YTI1Z84
     C0QQM82  C2019 06 07.15694 13 58 34.07 +24 04 16.8    ~674M 20.4 GVNEOCPI52
     C0QQM82  C2019 06 07.15774 13 58 33.60 +24 04 59.2    ~674M       VNEOCPI52
     C0QQM82  C2019 06 07.15853 13 58 33.19 +24 05 41.8    ~674M 20.4 GVNEOCPI52
     C0QQM82  C2019 06 07.15931 13 58 32.69 +24 06 25.1    ~674M 20.4 GVNEOCPI52
     C0QQM82  C2019 06 075IH#2`]erqoh3w$:YT_/MB2\:TgM/68D9`F_E?0:awkfk$@+4HM*F52
     C0QQM82  C2019 06 07AUKndb-bUm[nW[ggON?A:0y5og]BhA=Cl2a.s#d@By4yZUA0*`+xF52
     C0QQM82  C2019 06 08.16166 13 48 31.32 +40 43 55.7    ~68Nq 19.9 GVNEOCPI52
     C0QQM82  C2019 06 08.16523 13 48 27.82 +40 47 43.1    ~68Nq 19.8 GVNEOCPI52
     C0QQM82  C2019 06 08.16880 13 48 24.36 +40 51 31.0    ~68Nq 19.9 GVNEOCPI52
     C0QQM82 KC2019 06 08.93881513 35 03.51 +54 32 44.6    ~691M 20.6 GVNEOCPJ95
     C0QQM82 KC2019 06 08.94763713 34 50.26 +54 41 55.9    ~691M 20.7 GVNEOCPJ95
     C0QQM82 KC2019 06 08.95571413 34 38.13 +54 50 20.7    ~691M 20.8 GVNEOCPJ95

Station data:
(104) San Marcello Pistoiese  (N44.063037 E10.804200)  Italy. 0.40-m f/5
   reflector.
(246) Klet Observatory-KLENOT  (N48.863293 E14.288100)  Czech Republic.
   1.06-m KLENOT telescope.
(F51) Pan-STARRS 1, Haleakala  (N20.707235 W156.255910)  US/Hawaii.
   Observers N. Primak, A. Schultz, S. Watters, J. Thiel, T. Goggia. Measurer
   PS1 Science Consortium. 1.8-m Ritchey-Chrétien + CCD.
(F52) Pan-STARRS 2, Haleakala  (N20.707384 W156.255910)  US/Hawaii. 1.8-m
   Ritchey-Chrétien + CCD.
(G96) Mt. Lemmon Survey  (N32.442754 W110.788720)  US/Arizona.  Observers T.
   A. Pruyne, B. M. Africano, E. J. Christensen, G. A. Farneth, D. C. Fuls,
   A. R. Gibbs, A. D. Grauer, H. Groeller, J. A. Johnson, R. A. Kowalski, S.
   M. Larson, G. J. Leonard, R. L. Seaman, F. C. Shelly. 1.5-m reflector +
   10K CCD.
(I52) Steward Observatory, Mt. Lemmon Station  (N32.442547 W110.788920)
   US/Arizona.  Observers T. A. Pruyne, B. M. Africano, E. J. Christensen, G.
   A. Farneth, D. C. Fuls, A. R. Gibbs, A. D. Grauer, H. Groeller, J. A.
   Johnson, R. A. Kowalski, S. M. Larson, G. J. Leonard, R. L. Seaman, F. C.
   Shelly. 1.0-m reflector + CCD.
(J04) ESA Optical Ground Station, Tenerife  (N28.300924 W16.511830)  Canary
   Islands (Spain).  Observer D. Abreu. Measurers M. Micheli, D. Koschny, E.
   Schwab, M. Busch, A. Knöfel. 1.0-m f/4.4 reflector + CCD.
(J95) Great Shefford  (N51.474969 W1.447003)  UK.  Observer P. Birtwhistle.
   0.40-m f/6.0 Schmidt-Cassegrain + CCD.
(K87) Dettelbach Vineyard Observatory  (N49.807693 E10.170110)  Germany.
(L01) Višnjan Observatory, Tičan  (N45.290900 E13.749300)  Croatia.
   Observers K. Korlević, E. Pettarin. Measurer E. Pettarin. 1.0-m f/2.9
   reflector + CCD.
(Z84) Calar Alto-Schmidt  (N37.224049 W2.548210)  Spain.

Orbital elements:  C0QQM82
   Perihelion 2019 Jul 13.545581 +/- 0.0102 TT = 13:05:38 (JD 2458678.045581)
Epoch 2019 Jun  8.0 TT = JDT 2458642.5   Earth MOID: 0.0161   AutoNEOCP
M 346.71666572 +/- 0.029            (J2000 ecliptic)
n   0.37369861 +/- 0.000734         Peri.   51.58934 +/- 0.0009
a   1.90892290 +/- 0.0025           Node   250.18722 +/- 0.0014
e   0.5208849 +/- 0.000672          Incl.    8.52677 +/- 0.008
P   2.64/963.32d           H 26.1   G  0.15   U  7.9  
q 0.91459363 +/- 8.53e-5    Q 2.90325217 +/- 0.0051
From 42 observations 2019 May 26-June 8; mean residual 0".78
Residuals in arcseconds: 
190526 F51  .43+  .08-    190605 104  .32+  .82-    190607 Z84  .83+  .52+    
190526 F51  .12+  .29+    190605 246  3.5-  4.1+    190607 Z84  .12+  .10-    
190526 F51  .45+  .19-    190605 246  1.1-  .13-    190607 I52  .86-  .46+    
190605 G96  .99+  .21-    190605 J04  .35+  .37-    190607 I52  .65-  .71-    
190605 G96  .35+  .22+    190605 J04  .27+  .13-    190607 I52  .31+  1.1-    
190605 G96  .04+  1.7+    190605 J04  .04-  .09-    190607 I52  .05-  .33-    
190605 G96  .10-  .70+    190605 L01  .58+  .14+    190607 F52  .16+  .00     
190605 I52  .25-  1.0-    190606 I52  .27+  .37-    190607 F52  .05+  .54+    
190605 I52  .09-  .40-    190606 I52  .08+  .68-    190608 I52  .26-  .09+    
190605 I52  .22+  .47-    190606 I52  .19+  .54-    190608 I52  .46-  .30-    
190605 I52  .22-  .76-    190606 K87  .39-  .80-    190608 I52  .11-  .14-    
190605 104  .13+  1.0-    190606 K87  .41+  .06+    190608 J95  .14-  .72+    
190605 104  .24+  1.4-    190606 K87  .20-  .20+    190608 J95  .04-  .33-    
190605 L01  .54+  .16-    190607 Z84  .28+  .11-    190608 J95  .37+  .32-    

Ephemerides (geocentric):
Date (UTC) HH   RA              Dec         delta   r     elong  mag " sig PA
---- -- -- --  -------------   -----------  ------ ------ -----  --- ---- ---
2019 06 17 11  02 54 05.457   +60 29 46.78  .06295 .97406  47.0 25?? 1.08  29
2019 06 17 12  02 53 57.678   +60 24 41.64  .06322 .97388  47.0 25?? 1.08  29
2019 06 17 13  02 53 50.022   +60 19 38.91  .06348 .97370  47.0 25?? 1.08  29
2019 06 17 14  02 53 42.487   +60 14 38.56  .06374 .97352  46.9 25?? 1.08  29
2019 06 17 15  02 53 35.070   +60 09 40.56  .06401 .97334  46.9 25?? 1.08  29
2019 06 17 16  02 53 27.771   +60 04 44.90  .06427 .97316  46.9 25?? 1.09  29
2019 06 17 17  02 53 20.585   +59 59 51.54  .06453 .97298  46.9 25?? 1.09  29
2019 06 17 18  02 53 13.512   +59 55 00.46  .06480 .97281  46.9 25?? 1.09  29
2019 06 17 19  02 53 06.549   +59 50 11.62  .06506 .97263  46.9 25?? 1.09  29
2019 06 17 20  02 52 59.694   +59 45 25.02  .06532 .97245  46.9 25?? 1.09  29
2019 06 17 21  02 52 52.945   +59 40 40.61  .06559 .97227  46.9 25?? 1.09  29
2019 06 17 22  02 52 46.300   +59 35 58.38  .06585 .97209  46.8 25?? 1.10  29
2019 06 17 23  02 52 39.758   +59 31 18.30  .06612 .97191  46.8 25?? 1.10  29
2019 06 18 00  02 52 33.317   +59 26 40.35  .06638 .97174  46.8 25?? 1.10  29
2019 06 18 01  02 52 26.975   +59 22 04.50  .06665 .97156  46.8 25?? 1.10  29
2019 06 18 02  02 52 20.730   +59 17 30.73  .06691 .97138  46.8 25?? 1.10  29
2019 06 18 03  02 52 14.580   +59 12 59.02  .06718 .97121  46.8 25?? 1.10  29
2019 06 18 04  02 52 08.524   +59 08 29.34  .06744 .97103  46.8 25?? 1.11  29
2019 06 18 05  02 52 02.561   +59 04 01.68  .06771 .97085  46.8 25?? 1.11  29
2019 06 18 06  02 51 56.688   +58 59 36.01  .06797 .97068  46.8 25?? 1.11  29
2019 06 18 07  02 51 50.905   +58 55 12.30  .06824 .97050  46.8 25?? 1.11  29
2019 06 18 08  02 51 45.209   +58 50 50.55  .06851 .97033  46.7 25?? 1.11  29
2019 06 18 09  02 51 39.600   +58 46 30.71  .06877 .97015  46.7 25?? 1.11  29
2019 06 18 10  02 51 34.076   +58 42 12.79  .06904 .96998  46.7 26?? 1.12  29
2019 06 18 11  02 51 28.635   +58 37 56.75  .06930 .96980  46.7 26?? 1.12  28
2019 06 18 12  02 51 23.276   +58 33 42.57  .06957 .96963  46.7 26?? 1.12  28
2019 06 18 13  02 51 17.999   +58 29 30.24  .06984 .96945  46.7 26?? 1.12  28
2019 06 18 14  02 51 12.800   +58 25 19.73  .07010 .96928  46.7 26?? 1.12  28
2019 06 18 15  02 51 07.680   +58 21 11.02  .07037 .96911  46.7 26?? 1.12  28
2019 06 18 16  02 51 02.638   +58 17 04.10  .07064 .96893  46.7 26?? 1.12  28
2019 06 18 17  02 50 57.671   +58 12 58.95  .07090 .96876  46.7 26?? 1.13  28
2019 06 18 18  02 50 52.778   +58 08 55.55  .07117 .96859  46.7 26?? 1.13  28
2019 06 18 19  02 50 47.959   +58 04 53.87  .07144 .96841  46.7 26?? 1.13  28
2019 06 18 20  02 50 43.213   +58 00 53.91  .07171 .96824  46.7 26?? 1.13  28
2019 06 18 21  02 50 38.538   +57 56 55.64  .07197 .96807  46.7 26?? 1.13  28
2019 06 18 22  02 50 33.933   +57 52 59.04  .07224 .96790  46.7 26?? 1.13  28
2019 06 18 23  02 50 29.397   +57 49 04.11  .07251 .96772  46.7 26?? 1.13  28
2019 06 19 00  02 50 24.930   +57 45 10.81  .07278 .96755  46.7 26?? 1.13  28
2019 06 19 01  02 50 20.530   +57 41 19.14  .07304 .96738  46.7 26?? 1.14  28
2019 06 19 02  02 50 16.195   +57 37 29.07  .07331 .96721  46.7 26?? 1.14  28
2019 06 19 03  02 50 11.926   +57 33 40.60  .07358 .96704  46.7 26?? 1.14  28
2019 06 19 04  02 50 07.721   +57 29 53.70  .07385 .96687  46.7 26?? 1.14  28
2019 06 19 05  02 50 03.580   +57 26 08.35  .07412 .96670  46.7 26?? 1.14  28
2019 06 19 06  02 49 59.501   +57 22 24.55  .07438 .96653  46.7 26?? 1.14  28
2019 06 19 07  02 49 55.483   +57 18 42.28  .07465 .96636  46.7 26?? 1.14  28
2019 06 19 08  02 49 51.526   +57 15 01.51  .07492 .96619  46.7 26?? 1.14  28
2019 06 19 09  02 49 47.629   +57 11 22.24  .07519 .96602  46.7 26?? 1.15  28
2019 06 19 10  02 49 43.790   +57 07 44.45  .07546 .96585  46.7 26?? 1.15  28